This is the latest recevied weather packets stored in our database for station/object KB1QVF. If no packets are shown the sender has not sent any weather packets the latest 10 day(s).
| Time | Temp. | Humidity | Pressure | Rain* | Wind** | Luminosity | Snow |
|---|---|---|---|---|---|---|---|
| 1777757258 | 8.89° C | 92% | 1012.2 hPa | 1.78 mm | - | 28 W/m² | - |
| 1777756956 | 8.89° C | 92% | 1012.3 hPa | 3.05 mm | - | 26 W/m² | - |
| 1777756652 | 8.33° C | 92% | 1012.2 hPa | 3.05 mm | - | 34 W/m² | - |
| 1777756349 | 8.33° C | 91% | 1012.3 hPa | 1.78 mm | - | 26 W/m² | - |
| 1777756046 | 8.33° C | 91% | 1012.3 hPa | 0 mm | - | 27 W/m² | - |
| 1777755743 | 8.89° C | 90% | 1012.3 hPa | 1.27 mm | - | 30 W/m² | - |
| 1777755440 | 8.89° C | 90% | 1012.2 hPa | 3.05 mm | - | 42 W/m² | - |
| 1777755136 | 8.89° C | 88% | 1012.4 hPa | 1.78 mm | - | 18 W/m² | - |
| 1777754834 | 8.89° C | 86% | 1012.2 hPa | 1.27 mm | - | 14 W/m² | - |
| 1777754531 | 10° C | 82% | 1012.2 hPa | 1.27 mm | - | 13 W/m² | - |
| 1777754228 | 10.56° C | 78% | 1012.1 hPa | 0 mm | - | 14 W/m² | - |
| 1777753926 | 11.11° C | 75% | 1011.7 hPa | 0 mm | - | 63 W/m² | - |
| 1777753620 | 11.11° C | 74% | 1011.9 hPa | 0 mm | - | 71 W/m² | - |
| 1777753319 | 11.11° C | 74% | 1012 hPa | 0 mm | - | 130 W/m² | - |
| 1777753016 | 11.67° C | 73% | 1011.8 hPa | 0 mm | - | 178 W/m² | - |
| 1777752712 | 11.11° C | 73% | 1011.9 hPa | 0 mm | - | 382 W/m² | - |
| 1777752408 | 11.11° C | 73% | 1012 hPa | 0 mm | - | 198 W/m² | - |
| 1777752104 | 11.67° C | 71% | 1011.9 hPa | 0 mm | - | 137 W/m² | - |
| 1777751803 | 12.22° C | 70% | 1012 hPa | 0 mm | - | 195 W/m² | - |
| 1777751499 | 12.22° C | 70% | 1011.9 hPa | 0 mm | - | 309 W/m² | - |
| 1777751196 | 12.22° C | 68% | 1011.9 hPa | 0 mm | - | 275 W/m² | - |
| 1777750893 | 12.22° C | 69% | 1011.7 hPa | 0 mm | - | 317 W/m² | - |
| 1777750589 | 11.67° C | 70% | 1011.9 hPa | 0 mm | - | 308 W/m² | - |
| 1777750286 | 11.11° C | 72% | 1012.2 hPa | 0 mm | - | 440 W/m² | - |
| 1777749981 | 11.11° C | 71% | 1012.5 hPa | 0 mm | - | 341 W/m² | - |
* Rain latest hour (hover to see other rain measurements)
** Current wind speed in m/s (hover to see current wind gust speed)